Flag for Pakistan Weather past 2 weeks in Karachi, Sindh, Pakistan

Now
57 °F

Clear.


Feels Like: 55 °F
Forecast: 58 / 73 °F
Wind: 12 mph from Northeast

Location: Karachi Airport

Current Time: Jan 28, 2015 at 4:58:33 AM

Latest Report: Jan 28, 2015 at 4:25 AM


Visibility: 4 mi

Pressure: 30.09 "Hg

Humidity: 31%

Dew point: 27 °F

Location of KarachiLocation

Historic Weather in Karachi — Graph

°F

Karachi temperature yesterday

Maximum temperature yesterday: 75 °F (at 1:55 PM)
Minimum temperature yesterday: 52 °F (at 5:55 AM)
Average temperature yesterday: 64 °F

Past Weeks' High & Low Weather Summary

 TemperatureHumidityPressure
High86 °F (Jan 13, 1:55 PM)94% (Jan 13, 7:25 AM)30.21 "Hg (Jan 13, 7:25 AM)
Low48 °F (Jan 18, 7:25 AM)10% (Jan 27, 2:25 PM)29.56 "Hg (Jan 22, 2:30 AM)
Average66 °F44%30.07 "Hg
* Reported Jan 13 3:25 AM — Jan 28 3:25 AM, Karachi, Weather by CustomWeather, © 2014

Note: Actual official high and low records may vary slightly from our data, if they occured in-between our weather recording intervals... More about our weather records

Advertising

Karachi weather history for previous 24 hours

 ConditionsComfort  
Time TempWeatherWind HumidityBarometerVisibility
3:25 AM
Jan 28
54 °FClear.7 mph41%30.09 "Hg4 mi
2:55 AM54 °FClear.5 mph44%30.09 "Hg4 mi
2:25 AM54 °FClear.6 mph44%30.09 "Hg4 mi
1:55 AM55 °FClear.5 mph41%30.12 "Hg4 mi
1:25 AM55 °FClear.6 mph41%30.12 "Hg4 mi
12:55 AM57 °FClear.5 mph41%30.12 "Hg4 mi
12:25 AM59 °FClear.5 mph39%30.12 "Hg4 mi
11:55 PM
Jan 27
59 °FClear.5 mph36%30.12 "Hg4 mi
11:25 PM61 °FClear.5 mph34%30.15 "Hg4 mi
10:55 PM63 °FClear.5 mph34%30.15 "Hg4 mi
10:25 PM64 °FClear.6 mph32%30.15 "Hg4 mi
9:55 PM64 °FClear.9 mph32%30.12 "Hg4 mi
9:25 PM64 °FClear.12 mph32%30.12 "Hg4 mi
8:55 PM64 °FClear.10 mph32%30.12 "Hg4 mi
8:25 PM66 °FClear.9 mph26%30.12 "Hg4 mi
7:55 PM66 °FClear.5 mph24%30.12 "Hg4 mi
7:25 PM68 °FClear.8 mph21%30.09 "Hg4 mi
6:25 PM72 °FClear.7 mph16%30.07 "Hg4 mi
5:55 PM73 °FClear.9 mph14%30.07 "Hg4 mi
5:25 PM73 °FClear.9 mph14%30.07 "Hg4 mi
4:55 PM73 °FClear.10 mph13%30.07 "Hg4 mi
4:25 PM73 °FClear.8 mph12%30.07 "Hg4 mi
3:55 PM73 °FClear.7 mph12%30.07 "Hg4 mi
3:25 PM75 °FClear.7 mph10%30.07 "Hg4 mi
2:55 PM75 °FClear.8 mph10%30.07 "Hg4 mi
2:25 PM75 °FClear.6 mph10%30.07 "Hg4 mi
1:55 PM75 °FClear.6 mph11%30.07 "Hg4 mi
1:25 PM73 °FClear.7 mph12%30.09 "Hg4 mi
12:55 PM72 °FClear.8 mph12%30.12 "Hg4 mi
12:25 PM72 °FClear.7 mph13%30.15 "Hg4 mi
11:55 AM72 °FClear.8 mph44%30.15 "Hg4 mi
11:25 AM70 °FClear.9 mph12%30.18 "Hg4 mi
10:55 AM68 °FClear.7 mph18%30.18 "Hg4 mi
10:25 AM68 °FClear.10 mph18%30.15 "Hg4 mi
9:55 AM66 °FHaze.9 mph32%30.18 "Hg3 mi
8:55 AM57 °FHaze.5 mph51%30.15 "Hg2 mi
8:25 AM54 °FHaze.5 mph58%30.15 "Hg2 mi
7:55 AM52 °FHaze.6 mph72%30.12 "Hg2 mi
7:25 AM52 °FHaze.3 mph62%30.12 "Hg2 mi
6:55 AM52 °FHaze.3 mph67%30.09 "Hg3 mi
6:25 AM52 °FHaze.5 mph67%30.09 "Hg3 mi
5:55 AM52 °FHaze.5 mph72%30.09 "Hg3 mi
4:55 AM54 °FClear.5 mph67%30.09 "Hg3 mi
4:25 AM54 °FClear.5 mph67%30.09 "Hg4 mi
Weather by CustomWeather, © 2014

See weather overviewHow to use our weather pages